Regional Weather Roundup
Issued by NWS

Home | Current Version | Previous Version | Graphics & Text | Print | Product List | Glossary On
Versions: 1 2 3 4 5 6 7 8 9 10 11 12 13 14 15 16 17 18 19 20 21 22 23 24 25 26 27 28 29 30 31 32 33 34 35 36 37 38 39 40 41 42 43 44 45 46 47 48 49 50
000
ASUS43 KMKX 250711
RWRWI

WISCONSIN REGIONAL WEATHER ROUNDUP
NATIONAL WEATHER SERVICE MILWAUKEE/SULLIVAN WI
200 AM CDT SAT APR 25 2015

NOTE: "FAIR" INDICATES FEW OR NO CLOUDS BELOW 12,000 FEET WITH NO
SIGNIFICANT WEATHER AND/OR OBSTRUCTIONS TO VISIBILITY.

WIZ001-002-006>008-014>016-023>028-250800-
NORTHWEST WISCONSIN

CITY           SKY/WX    TMP DP  RH WIND       PRES   REMARKS
SUPERIOR ARPT  CLOUDY    35  31  87 NE12G17   29.94S WCI  27
ASHLAND        CLOUDY    37  31  78 N7        29.94F WCI  32
HAYWARD        CLOUDY    42  30  62 NE5       29.88F
SIREN          CLOUDY    44  30  57 E3        29.87R
CUMBERLAND     CLOUDY    43  32  65 SE8       29.86R
RICE LAKE      CLOUDY    44  32  63 SE15      29.88S
CHETEK         CLOUDY    42  34  72 E12G22    29.87S
LADYSMITH      CLOUDY    43  34  71 E7        29.90F
EAU CLAIRE     CLOUDY    42  35  76 SE8G18    29.86F
MENOMONIE      CLOUDY    43  37  78 E12G18    29.86S
NEW RICHMOND   CLOUDY    43  36  76 E12G17    29.83F
OSCEOLA        CLOUDY    45  35  68 E14       29.86F
$$

WIZ003>005-009-010-017-018-250800-
NORTH CENTRAL WISCONSIN

CITY           SKY/WX    TMP DP  RH WIND       PRES   REMARKS
MANITOWISH WTR CLOUDY    39  29  67 SE5       29.91F
ARBOR VITAE    CLOUDY    39  29  66 SE7       29.91F WCI  34
WOODRUFF       CLOUDY    39  29  66 SE7       29.91F WCI  34
RHINELANDER    CLOUDY    38  26  62 E10       29.93F WCI  31
EAGLE RIVER    CLOUDY    37  27  67 SE8       29.93F WCI  31
LAND O LAKES   CLOUDY    38  30  72 SE5       29.94F WCI  35
PHILLIPS       CLOUDY    38  29  70 E6        29.90F WCI  34
TOMAHAWK       CLOUDY    38  26  61 CALM      29.92F
MEDFORD        CLOUDY    38  29  70 SE8       29.89F WCI  33
MERRILL        CLOUDY    39  24  54 E6        29.92F WCI  35
$$

WIZ029-030-035-036-043>047-250800-
CENTRAL WISCONSIN

CITY           SKY/WX    TMP DP  RH WIND       PRES   REMARKS
WAUSAU         CLOUDY    39  26  59 SE12G20   29.91F WCI  32
MOSINEE        CLOUDY    36  32  87 E13       29.92F WCI  27
MARSHFIELD     CLOUDY    38  34  85 E13G20    29.90F WCI  30
STEVENS POINT  CLOUDY    34  31  86 E9        29.91F WCI  27
WAUPACA        CLOUDY    38  34  84 E5        29.93F WCI  35
WAUTOMA        CLOUDY    38  37  96 E10       29.92F WCI  31
WISC RAPIDS    CLOUDY    37  33  85 E8        29.91F WCI  31
CAMP DOUGLAS   CLOUDY    39  39 100 E13       29.86F WCI  31
$$

WIZ011>013-019>022-031-037>040-048>050-250800-
NORTHEAST WISCONSIN

CITY           SKY/WX    TMP DP  RH WIND       PRES   REMARKS
ANTIGO         CLOUDY    36  20  53 E10       29.93F WCI  28
SHAWANO        CLOUDY    40  25  54 E6        29.96F
OCONTO         CLOUDY    38  26  61 CALM      29.98F
STURGEON BAY   CLOUDY    37  21  52 E7        30.01F WCI  32
GREEN BAY      CLOUDY    41  24  51 E5        29.96F
MANITOWOC      CLOUDY    39  30  70 NE3       29.97F
APPLETON       CLOUDY    37  30  75 E7        29.94F WCI  32
CLINTONVILLE   CLOUDY    37  21  52 E6        29.95F WCI  33
OSHKOSH        CLOUDY    39  34  82 SE10      29.92F WCI  32
$$

WIZ032>034-041-042-053>061-250800-
SOUTHWEST WISCONSIN

CITY           SKY/WX    TMP DP  RH WIND       PRES   REMARKS
LA CROSSE      CLOUDY    44  36  73 E9        29.84S
SPARTA         CLOUDY    40  36  84 E14       29.87S WCI  32
VIROQUA        CLOUDY    38  36  91 E18       29.81S WCI  29
BOSCOBEL       CLOUDY    42  35  76 NE8       29.83F
PRAIRIE DU CHI CLOUDY    42  34  72 E13G18    29.79F
PLATTEVILLE    CLOUDY    40  36  83 E17       29.79S WCI  32
$$

WIZ056-057-062-063-064-067-068-250800-
SOUTH CENTRAL WISCONSIN

CITY           SKY/WX    TMP DP  RH WIND       PRES   REMARKS
REEDSBURG      CLOUDY    38  34  87 E8        29.86F WCI  32
BARABOO/DELLS  CLOUDY    37  34  87 E13       29.86F WCI  29
LONE ROCK      CLOUDY    41  35  79 E15       29.84F
MINERAL POINT  CLOUDY    41  36  81 E16G22    29.80F
MADISON        CLOUDY    40  33  76 E18G29    29.87F WCI  31
MIDDLETON      CLOUDY    41  34  76 E14       29.86F
WATERTOWN      CLOUDY    38  35  87 E10       29.89F WCI  31
MONROE         CLOUDY    37  34  87 E14G22    29.81F WCI  29
JANESVILLE     CLOUDY    41  34  75 E20       29.84F
$$

WIZ051-052-058>065-066-070>072-250800-
SOUTHEAST WISCONSIN

CITY           SKY/WX    TMP DP  RH WIND       PRES   REMARKS
MILWAUKEE      CLOUDY    39  32  76 E7        29.93F WCI  34
WAUKESHA       CLOUDY    36  32  87 E8        29.92F WCI  29
MILWAUKEE/TIMM CLOUDY    37  32  81 E5        29.93F WCI  34
RACINE         CLOUDY    40  33  76 NE15      29.93F WCI  32
BURLINGTON     CLOUDY    38  32  79 E10       29.89F WCI  31
KENOSHA        CLOUDY    40  36  86 E16       29.90F WCI  31
FOND DU LAC    CLOUDY    39  32  76 E8        29.92F WCI  33
SHEBOYGAN      CLOUDY    39  34  82 E7        29.95F WCI  34
WEST BEND      CLOUDY    36  32  87 E8        29.93F WCI  29
JUNEAU         CLOUDY    38  33  82 E13       29.91F WCI  30
$$

LSZ147-162-250800-
LAKE SUPERIOR

STATION/POSITION TIME  TEMP    WIND        PRES    WAVE
                       AIR SEA DIR/SP/G            HT/PER
                 (UTC) (F)     (DEG/KT/KT) (MB)    (FT/S)
W MID LAKE BUOY  0650   35 34   60/ 16/ 17 1016.8F   2/ 5
DEVILS ISLAND    0700   36      70/ 16/ 18 1015.4F
PORT WING        0640   38      30/ 13/ 15 1013.9F
SAXON HARBOR     0600   38        CALM     1013.9S
$$

LMZ867-665-643>646-250800-
LAKE MICHIGAN

STATION/POSITION TIME  TEMP    WIND        PRES    WAVE
                       AIR SEA DIR/SP/G            HT/PER
                 (UTC) (F)     (DEG/KT/KT) (MB)    (FT/S)
CHAMBERS ISLAND  0600   38     340/  2/  4 1016.6S
NORTHPORT PIER   0600   38      80/  7/  8 1016.6S
SISTER BAY       0647   39     120/  9/ 14   N/A
KEWAUNEE LAKESHO 0600   39      CALM  /  1 1015.2F
SHEBOYGAN LAKESH 0700   40     120/ 10/ 11 1015.0F
PORT WASHINGTON  0640   40      50/  8/ 10 1014.9F
MILWAUKEE LAKESH 0600   39      50/  8/ 10   N/A
KENOSHA   LAKESH 0700   40      80/ 20/ 23 1012.2F
$$

TC  - TEMPERATURE IN CELSIUS
VSB - VISIBILITY IN STATUTE MILES
WCI - WIND CHILL INDEX
HX  - HEAT INDEX



USA.gov is the U.S. government's official web portal to all federal, state and local government web resources and services.